User: anonymous   Login
Location: Oronoko Observatory
(41.9167°N, 86.3833°W)
Time: 15:15:15
(UTC-04:00)
Language:

PAYLOAD A - Orbit

View from above orbital plane
View from above orbital plane
View from above satellite
View from above satellite

Ground track
Ground track

The orbit data is extracted from the following two-line orbital elements,

1 27840U 03031A   17264.05944018 -.00000015  00000-0  87160-5 0  9993
2 27840  98.2112 257.4672 0098017 189.3519 170.5847 14.38888172747101
Epoch (UTC): 21 September 2017 01:25:35
Eccentricity: 0.0098017
inclination: 98.2112°
perigee height: 692 km
apogee height: 832 km
right ascension of ascending node: 257.4672°
argument of perigee: 189.3519°
revolutions per day: 14.38888172
mean anomaly at epoch: 170.5847°
orbit number at epoch: 74710

The dashed part of the orbit path shows where the satellite is in the earth's shadow,  

DLR